EW8555 Weather Reports


Display with metric or nautical units.
time (UTC)temp
F
wind
direction
speed
MPH
gust
MPH
rain 1hr
in
rain 24hr
in
rain mn
in
humidity
%
barometer
mb
20260508113023 52 55 2.0 5.0 0.00 0.24 0.01 77 1018.7
20260508111520 52 44 3.0 5.0 0.00 0.24 0.01 77 1018.7
20260508110018 51 24 2.0 4.0 0.00 0.24 0.01 80 1018.8
20260508104516 51 62 2.0 4.0 0.00 0.24 0.01 81 1018.8
20260508103018 51 69 2.0 4.0 0.00 0.24 0.01 81 1018.8
20260508101513 50 90 2.0 4.0 0.00 0.24 0.01 82 1018.8
20260508100013 50 38 1.0 5.0 0.01 0.24 0.01 84 1018.8
20260508094508 50 355 2.0 5.0 0.01 0.24 0.01 84 1018.8
20260508093107 49 48 3.0 6.0 0.01 0.24 0.01 85 1018.8
20260508091510 49 49 2.0 5.0 0.01 0.24 0.01 87 1018.8
20260508090008 49 42 2.0 5.0 0.00 0.23 0.00 87 1018.7
20260508084601 49 70 1.0 5.0 0.00 0.24 0.00 88 1018.6
20260508083100 49 74 3.0 4.0 0.00 0.24 0.00 89 1018.6
20260508081551 49 16 3.0 5.0 0.00 0.24 0.00 90 1018.6
20260508080053 49 63 2.0 4.0 0.00 0.24 0.00 92 1018.5
20260508074547 48 38 0.0 4.0 0.00 0.24 0.00 93 1018.4
20260508073044 48 34 2.0 4.0 0.00 0.24 0.00 94 1018.2
20260508071544 47 40 2.0 5.0 0.00 0.24 0.00 95 1018.2
20260508070041 47 39 1.0 4.0 0.00 0.24 0.00 96 1018.1
20260508064541 47 39 2.0 5.0 0.00 0.24 0.00 96 1017.9
20260508063055 47 19 1.0 3.0 0.00 0.24 0.00 96 1017.8
20260508061536 47 19 1.0 3.0 0.00 0.24 0.00 96 1017.7
20260508060033 47 19 1.0 4.0 0.00 0.24 0.00 97 1017.6
20260508054532 47 19 1.0 4.0 0.00 0.24 0.00 97 1017.4
20260508053031 46 15 1.0 3.0 0.00 0.24 0.00 96 1017.3
20260508051530 46 15 1.0 3.0 0.00 0.24 0.00 97 1017.3
20260508050037 46 15 1.0 3.0 0.00 0.24 0.00 97 1017.3
20260508044528 46 15 0.0 0.0 0.00 0.24 0.00 96 1017.3
20260508043031 46 15 0.0 0.0 0.00 0.24 0.00 96 1017.2
20260508041526 46 15 0.0 0.0 0.00 0.24 0.00 96 1017.1
20260508040034 46 15 0.0 0.0 0.00 0.24 0.00 96 1017.1
20260508034524 46 15 0.0 0.0 0.00 0.24 0.00 96 1017.1
20260508033023 46 15 0.0 1.0 0.00 0.24 0.00 96 1017.0
20260508031522 46 15 2.0 3.0 0.00 0.24 0.00 96 1016.9
20260508030025 46 15 0.0 0.0 0.00 0.24 0.00 96 1016.8
20260508024519 46 15 0.0 0.0 0.00 0.24 0.00 96 1016.9
20260508023019 46 15 0.0 0.0 0.00 0.24 0.00 96 1016.8
20260508021518 46 15 0.0 0.0 0.00 0.24 0.00 96 1016.9
20260508020027 46 15 0.0 0.0 0.00 0.24 0.00 96 1016.9
20260508014518 46 15 0.0 0.0 0.00 0.24 0.00 96 1016.8
20260508013017 46 15 0.0 0.0 0.00 0.24 0.00 96 1016.8
20260508011519 46 15 0.0 0.0 0.00 0.24 0.00 96 1016.8
20260508010017 46 15 0.0 0.0 0.00 0.24 0.00 96 1016.7
20260508004514 46 15 0.0 0.0 0.00 0.24 0.00 96 1016.7
20260508003014 46 15 0.0 0.0 0.00 0.24 0.00 96 1016.6
20260508001533 46 15 0.0 0.0 0.00 0.24 0.00 96 1016.7
20260508000012 46 15 0.0 0.0 0.00 0.24 0.00 96 1016.8
20260507234515 46 15 0.0 0.0 0.00 0.24 0.00 96 1016.9
20260507233015 46 15 0.0 0.0 0.00 0.24 0.00 96 1016.8
20260507231511 46 15 0.0 0.0 0.00 0.24 0.00 96 1016.8
20260507230010 46 15 0.0 0.0 0.00 0.24 0.00 96 1016.9
20260507224509 46 15 0.0 0.0 0.00 0.24 0.00 95 1016.8
20260507223008 46 15 0.0 0.0 0.00 0.24 0.00 95 1016.7
20260507221507 46 15 0.0 0.0 0.00 0.24 0.00 95 1016.7
20260507220009 46 15 0.0 0.0 0.00 0.24 0.00 95 1016.6
20260507214504 46 15 0.0 0.0 0.00 0.24 0.24 95 1016.5
20260507213003 46 15 0.0 0.0 0.00 0.24 0.24 95 1016.4
20260507211503 46 15 0.0 0.0 0.00 0.24 0.24 95 1016.4
20260507210003 46 15 0.0 0.0 0.00 0.24 0.24 95 1016.4
20260507204500 46 15 0.0 0.0 0.00 0.24 0.24 95 1016.3
20260507203101 46 15 0.0 0.0 0.00 0.24 0.24 95 1016.2
20260507201659 46 15 0.0 0.0 0.00 0.24 0.24 95 1016.1
20260507200109 46 15 0.0 1.0 0.01 0.24 0.24 95 1015.9
20260507194555 46 15 0.0 0.0 0.02 0.24 0.24 95 1015.7
20260507193055 46 15 0.0 1.0 0.04 0.24 0.24 94 1015.7
20260507191557 46 15 0.0 1.0 0.04 0.24 0.24 94 1015.5
20260507190054 46 15 0.0 2.0 0.05 0.23 0.23 94 1015.3
20260507184552 46 15 1.0 3.0 0.04 0.22 0.22 94 1015.2
20260507183047 47 15 1.0 3.0 0.04 0.20 0.20 94 1015.0
20260507181519 46 15 1.0 3.0 0.04 0.20 0.20 94 1014.8
20260507180019 46 15 0.0 3.0 0.04 0.18 0.18 93 1014.7
20260507174527 46 15 1.0 2.0 0.06 0.18 0.18 93 1014.7
20260507173019 46 15 1.0 3.0 0.07 0.16 0.16 93 1014.7
20260507171518 46 15 2.0 3.0 0.08 0.16 0.16 93 1014.6
20260507170017 47 15 1.0 3.0 0.08 0.14 0.14 93 1014.5
20260507164512 47 15 2.0 3.0 0.06 0.12 0.12 93 1014.4
20260507163011 47 15 2.0 3.0 0.04 0.09 0.09 93 1014.3
20260507161512 47 15 1.0 4.0 0.04 0.08 0.08 93 1014.3
20260507160014 47 13 1.0 3.0 0.02 0.06 0.06 92 1014.3
20260507154508 47 13 1.0 4.0 0.02 0.06 0.06 92 1014.3
20260507153009 47 43 1.0 4.0 0.02 0.05 0.05 92 1014.1
20260507151506 47 42 1.0 4.0 0.02 0.04 0.04 92 1014.0
20260507150007 46 43 0.0 3.0 0.02 0.04 0.04 92 1014.0
20260507144509 46 43 1.0 3.0 0.02 0.04 0.04 92 1013.9
20260507143003 46 30 2.0 4.0 0.01 0.03 0.03 92 1013.8
20260507141502 46 360 2.0 5.0 0.00 0.02 0.02 92 1013.7
20260507140000 46 360 2.0 4.0 0.00 0.02 0.02 92 1013.7
20260507134600 46 28 2.0 5.0 0.01 0.02 0.02 92 1013.6
20260507133106 46 61 2.0 8.0 0.01 0.02 0.02 91 1013.5
20260507131603 46 5 2.0 8.0 0.01 0.02 0.02 91 1013.5
20260507130109 46 46 1.0 5.0 0.01 0.02 0.02 91 1013.4
20260507124556 46 45 3.0 6.0 0.00 0.01 0.01 90 1013.3
20260507123053 47 336 5.0 9.0 0.00 0.01 0.01 88 1013.0
20260507121603 47 355 3.0 9.0 0.00 0.01 0.01 87 1012.8
20260507120049 47 50 5.0 11.0 0.00 0.01 0.01 87 1012.7
20260507114601 47 51 7.0 14.0 0.00 0.01 0.01 85 1012.5